World > North America > United States > Texas

Law, Texas Regional Weather

Lat: 30.66N, Lon: 96.36W
Wx Zone: TXZ196Web Search

If you are on your PC, you can easily pass this page to your phone by scanning the QR Code near the bottom with your camera.

Feedback


°F Click to change Law hourly weather to Imperial units.Click to change Law hourly weather to Metric units. °C
Law Weather Map
UTC Time: 4/13/2021, 04:45
Your Time:

Law, TX Regional Weather

Expires:202104130500;;469202
ASUS44 KSJT 130415
RWRSJT
WEST CENTRAL TEXAS REGIONAL WEATHER ROUNDUP
NATIONAL WEATHER SERVICE SAN ANGELO TX
1100 PM CDT MON APR 12 2021

NOTE: "FAIR" INDICATES FEW OR NO CLOUDS BELOW 12,000 FEET WITH NO
SIGNIFICANT WEATHER AND/OR OBSTRUCTIONS TO VISIBILITY.


TXZ163-177-195>197-199-213-226-237-130500-
SOUTHEAST TEXAS
  
CITY           SKY/WX    TMP DP  RH WIND       PRES   REMARKS
COLLEGE STN    MOCLDY    75  65  70 SE12      29.86F                  
CALDWELL       PTCLDY    74  67  79 SE9       29.87F                  
CROCKETT       NOT AVBL                                               
BRENHAM        CLOUDY    76  69  77 E6        29.88F                  
HUNTSVILLE     MOCLDY    74  66  76 S5        29.90S                  
CONROE         MOCLDY    67  63  87 E5        29.90S                  
HOUSTON BUSH   CLOUDY    72  65  78 E7        29.90R                  
HOUSTON HOBBY  CLOUDY    75  68  78 E9        29.88S                  
PERLAND        CLOUDY    74  68  81 SE8       29.90R                  
WHARTON        CLOUDY    72  64  75 E5        29.89S                  
$$


SKY/WX - Weather  TMP - Temperature  DP - Dew Point  RH - Relative Humidity
WIND - Wind Direction/Speed PRES - Barometric Pressure VSB - Visibility
WCI - Wind Chill Index E13G22 Wind - East Wind 13 mph/Gusts of 22 mph